Hourly Weather Senkovo Lug

Today, 25 November, Wednesday

Time Temperature Precipitation Wind Pressure Humidity
00:00 +1°C° 0 mm 2 mps 744 mmHg 93%
01:00 +1°C° 0 mm 2 mps 744 mmHg 94%
02:00 +3°C° 0 mm 1 mps 744 mmHg 95%
03:00 +3°C° 0.2 mm 1 mps 744 mmHg 96%
04:00 +3°C° 0.2 mm 1 mps 744 mmHg 97%
05:00 +2°C° 0.2 mm 1 mps 744 mmHg 98%
06:00 +2°C° 1.1 mm 1 mps 744 mmHg 98%
07:00 +2°C° 1.1 mm 1 mps 744 mmHg 98%
08:00 +2°C° 0 mm 1 mps 745 mmHg 97%
09:00 +2°C° 0.1 mm 1 mps 745 mmHg 97%
10:00 +2°C° 0.1 mm 1 mps 745 mmHg 96%
11:00 +2°C° 0.1 mm 1 mps 745 mmHg 96%
12:00 +3°C° 0 mm 1 mps 746 mmHg 96%
13:00 +2°C° 0 mm 0 mps 746 mmHg 96%
14:00 +2°C° 0 mm 0 mps 746 mmHg 95%
15:00 +2°C° 0 mm 0 mps 747 mmHg 96%
16:00 +2°C° 0 mm 0 mps 747 mmHg 96%
17:00 +1°C° 0 mm 0 mps 747 mmHg 97%
18:00 +1°C° 0 mm 0 mps 747 mmHg 97%
19:00 +2°C° 0 mm 1 mps 748 mmHg 96%
20:00 +2°C° 0 mm 1 mps 748 mmHg 96%
21:00 +2°C° 0 mm 1 mps 748 mmHg 96%
22:00 +2°C° 0 mm 1 mps 748 mmHg 96%
23:00 +1°C° 0 mm 2 mps 748 mmHg 96%

Tomorrow, 26 November, Thursday

Time Temperature Precipitation Wind Pressure Humidity
00:00 +1°C° 0.1 mm 2 mps 748 mmHg 96%
01:00 +2°C° 0.1 mm 2 mps 748 mmHg 96%
02:00 +2°C° 0.1 mm 2 mps 748 mmHg 96%
03:00 +1°C° 0.5 mm 3 mps 747 mmHg 96%
04:00 +2°C° 0.5 mm 3 mps 747 mmHg 97%
05:00 +2°C° 0.5 mm 3 mps 746 mmHg 97%
06:00 +2°C° 0.3 mm 3 mps 746 mmHg 97%
07:00 +4°C° 0.3 mm 2 mps 747 mmHg 97%
08:00 +4°C° 0.3 mm 2 mps 747 mmHg 97%
09:00 +5°C° 0 mm 2 mps 746 mmHg 97%
10:00 +4°C° 0 mm 3 mps 746 mmHg 96%
11:00 +5°C° 0 mm 3 mps 745 mmHg 95%
12:00 +5°C° 0 mm 3 mps 745 mmHg 91%
13:00 +4°C° 0 mm 3 mps 745 mmHg 87%
14:00 +4°C° 0 mm 3 mps 745 mmHg 84%
15:00 +3°C° 0 mm 3 mps 745 mmHg 82%
16:00 +3°C° 0 mm 3 mps 744 mmHg 81%
17:00 +2°C° 0 mm 3 mps 744 mmHg 80%
18:00 +1°C° 0 mm 3 mps 744 mmHg 81%
19:00 +1°C° 0 mm 3 mps 744 mmHg 82%
20:00 0°C° 0 mm 3 mps 743 mmHg 84%
21:00 0°C° 0 mm 3 mps 743 mmHg 85%
22:00 0°C° 0 mm 3 mps 743 mmHg 87%
23:00 -1°C° 0 mm 3 mps 742 mmHg 89%

Day after tomorrow, 27 November, Friday

Time Temperature Precipitation Wind Pressure Humidity
00:00 -1°C° 0 mm 3 mps 742 mmHg 89%
01:00 -2°C° 0 mm 4 mps 742 mmHg 89%
02:00 -1°C° 0 mm 4 mps 742 mmHg 89%
03:00 -1°C° 0 mm 4 mps 741 mmHg 90%
04:00 -1°C° 0 mm 4 mps 741 mmHg 90%
05:00 0°C° 0 mm 3 mps 740 mmHg 90%
06:00 0°C° 0.3 mm 3 mps 740 mmHg 92%
07:00 0°C° 0.3 mm 3 mps 740 mmHg 94%
08:00 0°C° 0.3 mm 3 mps 739 mmHg 96%
09:00 0°C° 0.6 mm 3 mps 739 mmHg 96%
10:00 +1°C° 0.6 mm 3 mps 739 mmHg 96%
11:00 +1°C° 0.6 mm 3 mps 739 mmHg 97%
12:00 0°C° 0.7 mm 4 mps 739 mmHg 96%
13:00 +1°C° 0.7 mm 4 mps 739 mmHg 95%
14:00 +1°C° 0.7 mm 4 mps 739 mmHg 94%
15:00 +1°C° 0.7 mm 4 mps 739 mmHg 95%
16:00 +1°C° 0.7 mm 4 mps 739 mmHg 96%
17:00 +2°C° 0.7 mm 3 mps 739 mmHg 97%
18:00 +1°C° 0.1 mm 3 mps 739 mmHg 94%
19:00 0°C° 0.1 mm 3 mps 740 mmHg 92%
20:00 0°C° 0.1 mm 3 mps 740 mmHg 90%
21:00 -1°C° 0 mm 2 mps 741 mmHg 90%
22:00 -1°C° 0 mm 2 mps 741 mmHg 91%
23:00 -2°C° 0 mm 2 mps 742 mmHg 91%

28 November, Saturday

Time Temperature Precipitation Wind Pressure Humidity
00:00 -2°C° 0 mm 2 mps 742 mmHg 91%
01:00 -2°C° 0 mm 2 mps 743 mmHg 90%
02:00 -2°C° 0 mm 2 mps 743 mmHg 89%
03:00 +1°C° 0 mm 1 mps 743 mmHg 89%
04:00 +1°C° 0 mm 1 mps 744 mmHg 88%
05:00 +1°C° 0 mm 1 mps 744 mmHg 87%
06:00 +1°C° 0 mm 1 mps 744 mmHg 88%
07:00 +1°C° 0 mm 1 mps 745 mmHg 89%
08:00 +1°C° 0 mm 1 mps 745 mmHg 90%
09:00 +1°C° 0 mm 1 mps 746 mmHg 90%
10:00 +1°C° 0 mm 1 mps 746 mmHg 89%
11:00 +2°C° 0 mm 1 mps 747 mmHg 88%
12:00 +2°C° 0 mm 1 mps 747 mmHg 87%
13:00 +2°C° 0 mm 1 mps 748 mmHg 87%
14:00 +2°C° 0 mm 1 mps 748 mmHg 86%
15:00 +2°C° 0 mm 1 mps 748 mmHg 88%
16:00 +1°C° 0 mm 1 mps 749 mmHg 89%
17:00 +1°C° 0 mm 1 mps 749 mmHg 91%
18:00 +1°C° 0 mm 1 mps 749 mmHg 90%
19:00 +1°C° 0 mm 1 mps 750 mmHg 89%
20:00 +1°C° 0 mm 1 mps 750 mmHg 89%
21:00 0°C° 0 mm 1 mps 751 mmHg 89%
22:00 0°C° 0 mm 1 mps 751 mmHg 90%
23:00 0°C° 0 mm 1 mps 751 mmHg 91%

29 November, Sunday

Time Temperature Precipitation Wind Pressure Humidity
00:00 0°C° 0 mm 1 mps 752 mmHg 91%
01:00 0°C° 0 mm 1 mps 752 mmHg 91%
02:00 -1°C° 0 mm 1 mps 752 mmHg 91%
03:00 -1°C° 0 mm 1 mps 752 mmHg 91%
04:00 -1°C° 0 mm 1 mps 752 mmHg 91%
05:00 -1°C° 0 mm 1 mps 752 mmHg 91%
06:00 -1°C° 0 mm 1 mps 752 mmHg 91%
07:00 -1°C° 0 mm 1 mps 752 mmHg 90%
08:00 -3°C° 0 mm 2 mps 752 mmHg 90%
09:00 -3°C° 0 mm 2 mps 752 mmHg 87%
10:00 -2°C° 0 mm 3 mps 752 mmHg 84%
11:00 -1°C° 0 mm 3 mps 752 mmHg 80%
12:00 -2°C° 0 mm 4 mps 752 mmHg 83%
13:00 -2°C° 0 mm 4 mps 751 mmHg 86%
14:00 -2°C° 0 mm 4 mps 751 mmHg 89%
15:00 -1°C° 0.1 mm 4 mps 751 mmHg 91%
16:00 -1°C° 0.1 mm 4 mps 750 mmHg 93%
17:00 0°C° 0.1 mm 4 mps 750 mmHg 95%
18:00 0°C° 0.2 mm 4 mps 750 mmHg 96%
19:00 0°C° 0.2 mm 5 mps 749 mmHg 96%
20:00 0°C° 0.2 mm 5 mps 749 mmHg 96%
21:00 0°C° 0.4 mm 5 mps 749 mmHg 96%
22:00 0°C° 0.4 mm 4 mps 749 mmHg 96%
23:00 0°C° 0.4 mm 4 mps 749 mmHg 96%

30 November, Monday

Time Temperature Precipitation Wind Pressure Humidity
00:00 0°C° 0.1 mm 4 mps 748 mmHg 96%
01:00 +1°C° 0.1 mm 4 mps 748 mmHg 95%
02:00 +1°C° 0.1 mm 4 mps 748 mmHg 94%
03:00 +1°C° 0.2 mm 4 mps 748 mmHg 94%
04:00 +1°C° 0.2 mm 4 mps 747 mmHg 94%
05:00 +2°C° 0.2 mm 3 mps 747 mmHg 95%
06:00 +1°C° 0.1 mm 3 mps 747 mmHg 94%
07:00 +1°C° 0.1 mm 3 mps 748 mmHg 93%
08:00 0°C° 0.1 mm 3 mps 748 mmHg 92%
09:00 0°C° 0 mm 3 mps 748 mmHg 91%
10:00 -1°C° 0 mm 3 mps 748 mmHg 89%
11:00 -2°C° 0 mm 4 mps 748 mmHg 88%
12:00 -2°C° 0.1 mm 4 mps 748 mmHg 88%
13:00 -2°C° 0.1 mm 4 mps 748 mmHg 89%
14:00 -2°C° 0.1 mm 4 mps 748 mmHg 90%
15:00 -2°C° 0.2 mm 4 mps 749 mmHg 92%
16:00 -3°C° 0.2 mm 4 mps 749 mmHg 93%
17:00 -2°C° 0.2 mm 3 mps 749 mmHg 95%
18:00 -1°C° 0.2 mm 3 mps 749 mmHg 95%
19:00 -1°C° 0.2 mm 3 mps 750 mmHg 96%
20:00 0°C° 0.2 mm 3 mps 750 mmHg 96%
21:00 0°C° 0.1 mm 3 mps 750 mmHg 96%
22:00 0°C° 0.1 mm 3 mps 751 mmHg 96%
23:00 0°C° 0.1 mm 3 mps 751 mmHg 96%
Show more